Other Public Products
Issued by NWS Grand Forks, ND

Home | Current Version | Previous Version | Text Only | Print | Product List | Glossary On
Versions: 1 2 3 4 5 6 7 8 9 10 11 12 13 14 15 16 17 18 19 20 21 22 23 24 25 26 27 28 29 30 31 32 33 34 35 36 37 38 39 40 41 42 43 44 45 46 47 48 49 50
000
FPUS83 KFGF 280531
OPUFGF
PRAIRIE TO PINES WEATHER ROUNDUP
NATIONAL WEATHER SERVICE EASTERN NORTH DAKOTA/GRAND FORKS ND
1200 AM CDT FRI APR 28 2017

 **SATELLITE DATA USED TO AUGMENT SKY COVER AT AUTOMATED STATIONS**
 *****  WEATHER ACROSS EASTERN NORTH DAKOTA  *****

CITY           SKY/WX    TMP DP  RH WIND       PRES   REMARKS
GRAND FORKS    MOCLDY    33  29  85 NW5       29.83R
GRAND FORKS AF MOCLDY    31  28  88 NW6       29.83R
GRAND CITY NWS NOT AVBL
BUXTON           N/A     31  29  92 NW7         N/A  WCI  25
DEVILS LAKE    FAIR      35  28  75 CALM      29.85R
FARGO          MOCLDY    36  29  75 NW17G25   29.82R
WAHPETON ARPT  FAIR      36  30  80 N10       29.81R
$$

 *****  WEATHER ACROSS CENTRAL AND WESTERN NORTH DAKOTA  *****

CITY           SKY/WX    TMP DP  RH WIND       PRES   REMARKS
JAMESTOWN      CLOUDY    38  30  73 NE9       29.83R
BISMARCK       FAIR      36  27  69 NE8       29.85R
MINOT          FAIR      32  25  75 N3        29.86R
MINOT AFB      FAIR      37  26  65 NE3       29.86R
GARRISON         N/A     37  26  64 E8        29.84R
WILLISTON      FAIR      39  13  34 E8        29.85R
DICKINSON      FAIR      32  16  51 E6        29.80R
HETTINGER      FAIR      32  23  69 E6        29.81R
$$

 *****  OTHER OBSERVATIONS NORTHEAST NORTH DAKOTA  *****

CITY           SKY/WX    TMP DP  RH WIND       PRES   REMARKS
WALHALLA       NOT AVBL
LANGDON        FAIR      27  25  93 W9        29.83S WCI  17
CAVALIER       FAIR      32  27  80 NW5       29.83R
GRAFTON        FAIR      32  30  93 W9        29.86R WCI  24
CANDO          NOT AVBL
FORT TOTTEN      N/A     38  28  66 CALM      29.95S
ROLLA          FAIR      28  25  86 N8        29.87R WCI  20
RUGBY          NOT AVBL
 ***** THE ABOVE OBSERVATIONS ARE NON NWS ARE NOT QUALITY
        CONTROLLED AND MAY MIS-REPORT RAIN FOR SNOW...
$$

 *****  OTHER OBSERVATIONS SOUTHEAST NORTH DAKOTA *****

CITY           SKY/WX    TMP DP  RH WIND       PRES   REMARKS
COOPERSTOWN    CLOUDY    34  30  86 N7        29.85R
VALLEY CITY    CLOUDY    36  32  87 N10       29.86R
OAKES          NOT AVBL
GWINNER        NOT AVBL
SHEYENNE NWR     N/A     38  29  71 N7        29.95S
BUFFALO          N/A     32  26  76 SE7         N/A
WYNDMERE         N/A     36  32  87 NW8         N/A
 ***** THE ABOVE OBSERVATIONS ARE NON NWS ARE NOT QUALITY
       CONTROLLED AND MAY MIS-REPORT RAIN FOR SNOW...
$$

  *****  WEATHER ACROSS NORTHERN MINNESOTA  *****

CITY           SKY/WX    TMP DP  RH WIND       PRES   REMARKS
FLAG ISLAND    FLURRIES  30  27  86 N16       29.73R WCI  19
WARROAD        FLURRIES  30  27  86 NW9       29.75S WCI  22
ROSEAU         LGT SNOW  30  27  86 NW9       29.77R WCI  22
HALLOCK        CLOUDY    36  30  80 NW6       29.82R
THF RVR FALLS  MOCLDY    28  24  85 N9        29.79R WCI  19
HALSTAD          N/A     32  27  80 N12         N/A  WCI  23
FOSSTON        FAIR      27  21  80 NW9       29.78R WCI  17
BAUDETTE       CLOUDY    30  24  78 N15       29.69R WCI  19
WASKISH        CLOUDY    28  25  86 NW13      29.72R WCI  18
CROOKSTON      CLOUDY    32  28  86 NW6       29.83R
$$
  *****  WEATHER ACROSS CENTRAL AND WEST MINNESOTA  *****

CITY           SKY/WX    TMP DP  RH WIND       PRES   REMARKS
BEMIDJI        CLOUDY    28  22  81 NW12      29.73R WCI  17
PARK RAPIDS    FAIR      30  23  75 NW16      29.74R WCI  19
WADENA         CLOUDY    30  27  86 W5        29.76S
DETROIT LAKES  CLOUDY    32  28  86 NW9       29.78S WCI  24
MOORHEAD       FAIR      36  28  75 NW20      29.82R
FERGUS FALLS   CLOUDY    36  28  75 NW13      29.80R
ELBOW LAKE     CLOUDY    34  30  86 CALM      29.80R
MORRIS MN      CLOUDY    37  30  75 W10       29.79R
STAPLES        CLOUDY    28  25  86 W8        29.76R WCI  20
WHEATON        FAIR      36  30  80 W5        29.83R
$$
  *****  WEATHER ELSEWHERE ACROSS MINNESOTA  *****

CITY           SKY/WX    TMP DP  RH WIND       PRES   REMARKS
DULUTH         FRZ DRZL  28  23  81 W9        29.66R WCI  19
INTRNTL FALLS  CLOUDY    26  22  84 W6        29.66R WCI  19
ELY            CLOUDY    25  21  86 W8        29.61R WCI  16
CLOQUET        MIX PCPN  28  25  86 W7        29.68R WCI  21
BRAINERD       CLOUDY    31  24  75 W14       29.74R WCI  21
HIBBING        CLOUDY    26  21  81 W9        29.65S WCI  17
ALEXANDRIA     CLOUDY    34  28  79 W9        29.78R
SAINT CLOUD    CLOUDY    33  27  78 W9        29.77R
MINNEAPOLIS    MOCLDY    36  25  64 W9        29.79R
$$

  *****  WEATHER ACROSS SOUTH DAKOTA  *****

CITY           SKY/WX    TMP DP  RH WIND       PRES   REMARKS
SIOUX FALLS    FAIR      34  30  85 E8        29.84R
BROOKINGS      FAIR      31  27  85 S7        29.82S WCI  24
WATERTOWN      FAIR      31  27  85 SW5       29.81R
HURON          FAIR      34  28  79 SE8       29.82R
SISSETON         N/A     35  30  82 NW8       29.80R
ABERDEEN       FAIR      30  26  85 N5        29.82R
MITCHELL       FAIR      35  28  75 E9        29.83R
PIERRE         FAIR      32  27  81 E5        29.78R
MOBRIDGE       FAIR      39  23  52 E12       29.79R
RAPID CITY     CLOUDY    39  31  72 NE8       29.75R
$$

  *****  SOME WEATHER IN NEARBY STATES *****

CITY           SKY/WX    TMP DP  RH WIND       PRES   REMARKS
GLASGOW MT     CLOUDY    46  15  28 E12       29.80R
GREAT FALLS MT CLOUDY    39  35  86 CALM      29.86R
CHEYENNE WY    FAIR      35  26  69 W6        29.64S
SCOTTSBLUFF NE CLOUDY    43  39  86 SE7       29.62R
OMAHA NE       MOCLDY    47  36  65 W6        29.77S
DES MOINES IA  CLOUDY    44  32  62 NE10      29.84R
DAVENPORT IA   FAIR      37  34  89 CALM      29.87R
CHICAGO IL     FAIR      42  36  79 SW5       29.86R
EAU CLAIRE WI  CLOUDY    32  23  69 W9        29.77R WCI  24
LA CROSSE WI   CLOUDY    38  29  70 W13       29.81R
$$

  *****  SOME NATIONAL WEATHER *****

CITY           SKY/WX    TMP DP  RH WIND       PRES   REMARKS
LA GUARDIA NY  FOG       59  57  93 E6        29.87F VSB 1/4
RALEIGH NC     MOCLDY    73  63  70 SW10      29.93R
ATLANTA GA     MOCLDY    68  68 100 S8        29.91R
NEW ORLEANS LA MOCLDY    75  71  87 SE10      29.78F
OKLAHOMA CITY  MOCLDY    60  50  69 E10       29.61R THUNDER
ALBUQUERQUE NM MOCLDY    57  28  33 NW9       29.75R
SALT LAKE CITY MOCLDY    40  32  73 SW6       29.86R
LOS ANGELES CA FAIR      75  37  25 N18G38    29.75R
BOISE ID       CLOUDY    42  30  62 NW9       29.96R
SEATTLE WA     CLOUDY    49  40  71 NE13      30.16R
$$

*** WEATHER ACROSS MANITOBA...SASKATCHEWAN AND ONTARIO ***
                ***ONTARIO***

CITY           SKY/WX    TMP DP  RH WIND       PRES   REMARKS
GERALDTON      LGT SNOW  27  25  93 SW10      29.38R WCI  17
THUNDER BAY    CLOUDY    25  21  86 W10       29.56R WCI  15
SIOUX LOOKOUT  LGT SNOW  23  21  93 NW8       29.57S VSB 1   WCI  14
TORONTO        MOCLDY    55  46  71 NW16      29.77R
BIG TROUT LK   LGT SNOW  19  18  93 N16G28    29.67F WCI   5
PICKLE LAKE    NOT AVBL
DRYDEN         LGT SNOW  25  23  93 NW6       29.61R VSB 1   WCI  18
KENORA         SNOW      27  25  93 N14G21    29.69S VSB 1/2 WCI  15
$$
                *** MANITOBA***

CITY           SKY/WX    TMP DP  RH WIND       PRES   REMARKS
BRANDON        CLEAR     25  19  80 NW6       29.90R WCI  18
DAUPHIN        CLEAR     25  16  68 W6        29.92R WCI  18
ISLAND LAKE    MOCLDY    30  10  43 N8        29.87F WCI  23
PILOT MOUND      N/A     28  19  69 N7          N/A  WCI  21
THE PAS        CLEAR     27  14  59 CALM      29.96S
THOMPSON       MOCLDY    25  10  54 NE3       30.00S
WINNIPEG       MOCLDY    36  25  64 NE10      29.84R
LYNN LAKE      CLEAR     30  10  43 NE2       29.99F
CHURCHILL      CLEAR     16  10  79 S8        30.07S WCI   5
GILLAM         PTCLDY    19   9  63 NE8       30.01S WCI   9
$$
                ***SASKATCHEWAN***

CITY           SKY/WX    TMP DP  RH WIND       PRES   REMARKS
ESTEVAN        PTCLDY    36  27  69 SE2       29.87R
KINDERSLEY     PTCLDY    28  28 100 SW5       29.84R WCI  23
LLOYDMINSTER   CLOUDY    34  32  93 E9        29.91R
PRINCE ALBERT  MOCLDY    34  19  55 E3        29.93R
REGINA         PTCLDY    39  10  30 E13       29.87S
YORKTON        CLEAR     30  19  64 SE3       29.91S



USA.gov is the U.S. government's official web portal to all federal, state and local government web resources and services.